ECISR LEIB-LESB

Flight info

Callsign ECISR
Flight time N/A
Altitude 1000
Route VFR
Aircraft C172/L-SGR/B1

Departure

Time 2026-05-01 14:47
Airport Ibiza Airport (LEIB)

Arrival

Time N/A
Airport Son Bonet Airfield (LESB)
Time Latitude Longitude Altitude Speed Heading
2026-05-01 14:34 38.87722 1.37597 23 ft 0 kts 59°
2026-05-01 14:36 38.87746 1.37609 23 ft 8 kts 326°
2026-05-01 14:36 38.87735 1.37534 23 ft 13 kts 241°
2026-05-01 14:36 38.87694 1.37478 23 ft 9 kts 158°
2026-05-01 14:37 38.87626 1.37526 23 ft 12 kts 152°
2026-05-01 14:37 38.87564 1.37534 23 ft 9 kts 240°
2026-05-01 14:37 38.87526 1.37443 23 ft 13 kts 242°
2026-05-01 14:37 38.87478 1.37326 23 ft 16 kts 241°
2026-05-01 14:38 38.87421 1.37187 23 ft 18 kts 242°
2026-05-01 14:38 38.87356 1.37030 23 ft 20 kts 242°
2026-05-01 14:38 38.87287 1.36862 23 ft 20 kts 241°
2026-05-01 14:38 38.87218 1.36696 23 ft 21 kts 241°
2026-05-01 14:39 38.87147 1.36525 23 ft 22 kts 241°
2026-05-01 14:39 38.87085 1.36376 23 ft 18 kts 241°
2026-05-01 14:39 38.87022 1.36223 23 ft 20 kts 242°
2026-05-01 14:39 38.86956 1.36061 23 ft 21 kts 241°
2026-05-01 14:40 38.86885 1.35888 23 ft 22 kts 242°
2026-05-01 14:40 38.86831 1.35808 23 ft 10 kts 155°
2026-05-01 14:40 38.86779 1.35844 23 ft 0 kts 152°
2026-05-01 14:44 38.86737 1.35873 23 ft 13 kts 149°
2026-05-01 14:44 38.86727 1.35960 23 ft 0 kts 64°
2026-05-01 14:45 38.86727 1.35961 23 ft 0 kts 63°
2026-05-01 14:46 38.86852 1.36265 28 ft 62 kts 61°
2026-05-01 14:46 38.87068 1.36800 197 ft 69 kts 61°
2026-05-01 14:47 38.87301 1.37363 371 ft 74 kts 62°
2026-05-01 14:47 38.87531 1.37970 554 ft 77 kts 65°
2026-05-01 14:47 38.87764 1.38592 744 ft 78 kts 68°
2026-05-01 14:48 38.87149 1.39494 1064 ft 87 kts 165°
2026-05-01 14:48 38.86538 1.39681 1233 ft 95 kts 169°
2026-05-01 14:48 38.85207 1.39748 1635 ft 100 kts 181°
2026-05-01 14:49 38.83774 1.39689 1959 ft 105 kts 182°
2026-05-01 14:49 38.82283 1.39529 2156 ft 115 kts 185°
2026-05-01 14:50 38.81182 1.39402 2097 ft 120 kts 181°
2026-05-01 14:50 38.78992 1.39413 1849 ft 113 kts 171°
2026-05-01 14:51 38.78254 1.39597 1807 ft 103 kts 166°
2026-05-01 14:51 38.76785 1.40216 1812 ft 117 kts 160°
2026-05-01 14:52 38.75231 1.41036 1809 ft 122 kts 157°
2026-05-01 14:52 38.74475 1.41520 1808 ft 123 kts 152°
2026-05-01 14:52 38.73410 1.43009 1805 ft 118 kts 91°
2026-05-01 14:53 38.73500 1.44050 1805 ft 117 kts 77°
2026-05-01 14:53 38.73797 1.45019 1808 ft 116 kts 66°
2026-05-01 14:53 38.74118 1.45986 1809 ft 118 kts 66°
2026-05-01 14:53 38.74446 1.46970 1808 ft 119 kts 66°
2026-05-01 14:54 38.74772 1.47951 1808 ft 120 kts 66°
2026-05-01 14:54 38.75102 1.48939 1808 ft 120 kts 66°
2026-05-01 14:54 38.75469 1.49908 1808 ft 121 kts 63°
2026-05-01 14:54 38.75839 1.50875 1807 ft 121 kts 63°
2026-05-01 14:55 38.76227 1.51831 1807 ft 121 kts 59°
2026-05-01 14:55 38.76647 1.52763 1807 ft 121 kts 59°
2026-05-01 14:55 38.77068 1.53694 1807 ft 120 kts 59°
2026-05-01 14:55 38.77484 1.54615 1807 ft 119 kts 59°
2026-05-01 14:56 38.77903 1.55542 1807 ft 118 kts 59°
2026-05-01 14:56 38.78314 1.56453 1807 ft 118 kts 59°
2026-05-01 14:56 38.78725 1.57362 1807 ft 118 kts 59°
2026-05-01 14:56 38.79134 1.58269 1807 ft 117 kts 59°
2026-05-01 14:57 38.79543 1.59174 1807 ft 117 kts 59°
2026-05-01 14:57 38.80365 1.60995 1807 ft 117 kts 59°
2026-05-01 14:57 38.80772 1.61897 1807 ft 117 kts 59°
2026-05-01 14:58 38.81179 1.62799 1807 ft 117 kts 59°
2026-05-01 14:58 38.81588 1.63705 1807 ft 117 kts 59°
2026-05-01 14:58 38.81996 1.64610 1807 ft 117 kts 59°
2026-05-01 14:58 38.82410 1.65528 1807 ft 117 kts 60°
2026-05-01 14:59 38.82814 1.66423 1807 ft 117 kts 60°
2026-05-01 14:59 38.83328 1.67230 1809 ft 117 kts 40°
2026-05-01 14:59 38.83920 1.67958 1808 ft 117 kts 44°
2026-05-01 14:59 38.84501 1.68680 1808 ft 117 kts 44°
2026-05-01 15:00 38.85686 1.70152 1807 ft 117 kts 44°
2026-05-01 15:00 38.86272 1.70880 1807 ft 117 kts 44°
2026-05-01 15:00 38.86852 1.71602 1807 ft 117 kts 44°
2026-05-01 15:01 38.87441 1.72334 1807 ft 117 kts 44°
2026-05-01 15:01 38.88027 1.73063 1807 ft 117 kts 44°
2026-05-01 15:01 38.88618 1.73798 1807 ft 117 kts 44°
2026-05-01 15:01 38.89204 1.74526 1807 ft 117 kts 44°
2026-05-01 15:02 38.89788 1.75253 1807 ft 117 kts 44°
2026-05-01 15:02 38.89980 1.75492 1807 ft 117 kts 44°
2026-05-01 15:02 38.90971 1.76725 1808 ft 119 kts 44°
2026-05-01 15:02 38.91606 1.77421 1808 ft 120 kts 40°
2026-05-01 15:03 38.92247 1.78114 1808 ft 120 kts 40°
2026-05-01 15:03 38.92884 1.78803 1807 ft 120 kts 40°
2026-05-01 15:03 38.93525 1.79497 1807 ft 120 kts 40°
2026-05-01 15:03 38.94168 1.80193 1807 ft 120 kts 40°
2026-05-01 15:04 38.94806 1.80883 1807 ft 120 kts 40°
2026-05-01 15:04 38.95452 1.81582 1807 ft 120 kts 40°
2026-05-01 15:04 38.96084 1.82267 1807 ft 120 kts 40°
2026-05-01 15:04 38.96725 1.82961 1807 ft 120 kts 40°
2026-05-01 15:05 38.97364 1.83653 1807 ft 120 kts 40°
2026-05-01 15:05 38.98008 1.84350 1807 ft 120 kts 40°
2026-05-01 15:05 38.98645 1.85040 1807 ft 120 kts 40°
2026-05-01 15:05 38.99295 1.85745 1807 ft 120 kts 40°
2026-05-01 15:06 38.99934 1.86437 1807 ft 120 kts 40°
2026-05-01 15:06 39.00570 1.87127 1807 ft 120 kts 40°
2026-05-01 15:06 39.01209 1.87819 1807 ft 120 kts 40°
2026-05-01 15:06 39.01849 1.88513 1807 ft 120 kts 40°
2026-05-01 15:07 39.02489 1.89207 1807 ft 120 kts 40°
2026-05-01 15:07 39.03131 1.89903 1807 ft 120 kts 40°
2026-05-01 15:07 39.03769 1.90595 1807 ft 120 kts 40°
2026-05-01 15:07 39.04406 1.91286 1807 ft 120 kts 40°
2026-05-01 15:08 39.05054 1.91989 1807 ft 120 kts 40°
2026-05-01 15:08 39.05692 1.92681 1807 ft 120 kts 40°
2026-05-01 15:08 39.06332 1.93375 1807 ft 120 kts 40°
2026-05-01 15:08 39.06968 1.94066 1807 ft 120 kts 40°
2026-05-01 15:09 39.07607 1.94760 1807 ft 120 kts 40°
2026-05-01 15:09 39.08244 1.95452 1807 ft 120 kts 40°
2026-05-01 15:09 39.08890 1.96153 1807 ft 120 kts 40°
2026-05-01 15:09 39.09528 1.96846 1807 ft 120 kts 40°
2026-05-01 15:10 39.10167 1.97540 1807 ft 120 kts 40°
2026-05-01 15:10 39.11447 1.98931 1807 ft 120 kts 40°
2026-05-01 15:10 39.12089 1.99628 1807 ft 120 kts 40°
2026-05-01 15:11 39.12736 2.00331 1807 ft 120 kts 40°
2026-05-01 15:11 39.14014 2.01721 1807 ft 120 kts 40°
2026-05-01 15:11 39.14653 2.02416 1807 ft 120 kts 40°
2026-05-01 15:12 39.15294 2.03113 1807 ft 120 kts 40°
2026-05-01 15:12 39.16573 2.04504 1807 ft 120 kts 40°
2026-05-01 15:12 39.17220 2.05208 1807 ft 120 kts 40°
2026-05-01 15:13 39.19138 2.07295 1807 ft 120 kts 40°
2026-05-01 15:14 39.20410 2.08681 1807 ft 120 kts 40°
2026-05-01 15:14 39.21058 2.09387 1807 ft 120 kts 40°
2026-05-01 15:14 39.22336 2.10779 1807 ft 120 kts 40°
2026-05-01 15:15 39.23613 2.12170 1807 ft 120 kts 40°
2026-05-01 15:15 39.24892 2.13564 1807 ft 120 kts 40°
2026-05-01 15:16 39.26189 2.14933 1807 ft 120 kts 38°
2026-05-01 15:16 39.27508 2.16274 1807 ft 120 kts 38°
2026-05-01 15:17 39.28827 2.17614 1807 ft 120 kts 38°
2026-05-01 15:18 39.30795 2.19614 1807 ft 120 kts 38°
2026-05-01 15:18 39.31456 2.20287 1807 ft 120 kts 38°
2026-05-01 15:19 39.33428 2.22291 1807 ft 120 kts 38°
2026-05-01 15:19 39.34746 2.23632 1807 ft 120 kts 38°
2026-05-01 15:19 39.35412 2.24311 1739 ft 123 kts 38°
2026-05-01 15:20 39.36696 2.25614 1472 ft 111 kts 38°
2026-05-01 15:20 39.37295 2.26223 1346 ft 108 kts 38°
2026-05-01 15:20 39.37897 2.26836 1319 ft 116 kts 38°
2026-05-01 15:21 39.38537 2.27487 1309 ft 116 kts 38°
2026-05-01 15:21 39.39175 2.28137 1308 ft 116 kts 38°
2026-05-01 15:21 39.39812 2.28786 1307 ft 116 kts 38°
2026-05-01 15:21 39.40467 2.29416 1307 ft 116 kts 36°
2026-05-01 15:22 39.41768 2.30650 1307 ft 116 kts 36°
2026-05-01 15:22 39.42423 2.31270 1307 ft 116 kts 36°
2026-05-01 15:22 39.43078 2.31891 1307 ft 116 kts 36°
2026-05-01 15:23 39.43725 2.32504 1307 ft 116 kts 36°
2026-05-01 15:23 39.44378 2.33123 1307 ft 116 kts 36°
2026-05-01 15:23 39.45032 2.33743 1307 ft 116 kts 36°
2026-05-01 15:23 39.45704 2.34318 1307 ft 116 kts 33°
2026-05-01 15:24 39.46379 2.34890 1307 ft 116 kts 33°
2026-05-01 15:24 39.47057 2.35465 1307 ft 116 kts 33°
2026-05-01 15:24 39.47735 2.36040 1307 ft 116 kts 33°
2026-05-01 15:24 39.48413 2.36616 1307 ft 116 kts 33°
2026-05-01 15:25 39.49086 2.37187 1307 ft 116 kts 33°
2026-05-01 15:25 39.49765 2.37763 1307 ft 116 kts 33°
2026-05-01 15:25 39.50462 2.38310 1307 ft 116 kts 29°
2026-05-01 15:25 39.51167 2.38823 1307 ft 116 kts 29°
2026-05-01 15:26 39.51873 2.39336 1307 ft 116 kts 29°
2026-05-01 15:26 39.52576 2.39845 1307 ft 116 kts 29°
2026-05-01 15:26 39.53281 2.40357 1307 ft 116 kts 29°
2026-05-01 15:26 39.53954 2.40952 1307 ft 116 kts 39°
2026-05-01 15:27 39.54527 2.41683 1307 ft 116 kts 49°
2026-05-01 15:27 39.54982 2.42534 1303 ft 116 kts 67°
2026-05-01 15:27 39.55149 2.43560 1308 ft 116 kts 79°
2026-05-01 15:28 39.55460 2.45620 1317 ft 115 kts 78°
2026-05-01 15:28 39.55620 2.46623 1466 ft 113 kts 78°
2026-05-01 15:28 39.55778 2.47607 1629 ft 111 kts 76°
2026-05-01 15:29 39.56159 2.49515 1974 ft 108 kts 75°
2026-05-01 15:29 39.56350 2.50463 2148 ft 107 kts 75°
2026-05-01 15:29 39.56767 2.52406 2310 ft 121 kts 72°
2026-05-01 15:30 39.57193 2.54234 2307 ft 126 kts 70°
2026-05-01 15:31 39.58356 2.58659 1870 ft 117 kts 72°
2026-05-01 15:31 39.58847 2.60651 1568 ft 115 kts 72°
2026-05-01 15:32 39.59327 2.62628 1288 ft 113 kts 75°
2026-05-01 15:32 39.59506 2.64544 846 ft 101 kts 89°
2026-05-01 15:33 39.59079 2.66567 659 ft 66 kts 123°
2026-05-01 15:34 39.58762 2.68207 471 ft 66 kts 74°